FW2982 Weather Reports


Display with metric or nautical units.
time (UTC)temp
F
wind
direction
speed
MPH
gust
MPH
rain 1hr
in
rain 24hr
in
rain mn
in
humidity
%
barometer
mb
20260503014445 52 32 1.0 4.0 0.00 0.00 0.00 56 1011.4
20260503013707 52 327 0.0 3.0 0.00 0.00 0.00 56 1011.3
20260503013208 52 130 0.0 2.0 0.00 0.00 0.00 57 1011.2
20260503012706 52 178 0.0 2.0 0.00 0.00 0.00 56 1011.2
20260503012203 52 235 0.0 2.0 0.00 0.00 0.00 56 1011.2
20260503011702 52 234 0.0 2.0 0.00 0.00 0.00 57 1011.0
20260503011202 52 317 0.0 2.0 0.00 0.00 0.00 58 1011.0
20260503010703 52 320 1.0 2.0 0.00 0.00 0.00 59 1011.0
20260503010203 52 319 0.0 0.0 0.00 0.00 0.00 60 1010.9
20260503005704 52 319 0.0 1.0 0.00 0.00 0.00 58 1010.9
20260503005203 52 319 0.0 2.0 0.00 0.00 0.00 57 1010.8
20260503004704 52 319 0.0 2.0 0.00 0.00 0.00 57 1010.7
20260503004202 52 350 0.0 1.0 0.00 0.00 0.00 56 1010.5
20260503003703 52 351 0.0 1.0 0.00 0.00 0.00 56 1010.4
20260503003202 53 350 0.0 1.0 0.00 0.00 0.00 56 1010.4
20260503002702 0 0.0 0.0 0.00 0.00 0.00 1010.4
20260503001638 53 221 0.0 1.0 0.00 0.00 0.00 56 1010.4
20260503001139 53 221 0.0 1.0 0.00 0.00 0.00 54 1010.2
20260503000638 54 221 0.0 0.0 0.00 0.00 0.00 54 1010.3
20260503000135 54 221 0.0 0.0 0.00 0.00 0.00 53 1010.2
20260502235631 54 281 0.0 2.0 0.00 0.00 0.00 53 1010.1
20260502235115 54 281 0.0 2.0 0.00 0.00 0.00 53 1010.1
20260502234615 55 281 0.0 1.0 0.00 0.00 0.00 54 1009.9
20260502234353 55 281 0.0 4.0 0.00 0.00 0.00 49 1009.9
20260502233609 55 281 1.0 4.0 0.00 0.00 0.00 51 1009.8
20260502233106 55 149 0.0 3.0 0.00 0.00 0.00 50 1009.8
20260502232606 55 149 0.0 3.0 0.00 0.00 0.00 50 1009.7
20260502232104 56 116 1.0 2.0 0.00 0.00 0.00 50 1009.7
20260502231604 56 288 0.0 5.0 0.00 0.00 0.00 50 1009.7
20260502231102 56 49 2.0 5.0 0.00 0.00 0.00 49 1009.6
20260502230602 56 320 0.0 3.0 0.00 0.00 0.00 50 1009.7
20260502225603 56 52 1.0 4.0 0.00 0.00 0.00 48 1009.7
20260502225103 56 55 1.0 3.0 0.00 0.00 0.00 47 1009.6
20260502224603 56 296 1.0 3.0 0.00 0.00 0.00 48 1009.7
20260502224103 56 266 1.0 3.0 0.00 0.00 0.00 48 1009.7
20260502223545 56 286 0.0 4.0 0.00 0.00 0.00 47 1009.7
20260502223039 56 283 0.0 4.0 0.00 0.00 0.00 47 1009.6
20260502222817 57 42 1.0 3.0 0.00 0.00 0.00 46 1009.6
20260502222039 57 134 1.0 4.0 0.00 0.00 0.00 45 1009.8
20260502221538 57 80 1.0 6.0 0.00 0.00 0.00 46 1009.6
20260502221320 57 41 1.0 6.0 0.00 0.00 0.00 45 1009.7
20260502220540 57 237 0.0 3.0 0.00 0.00 0.00 47 1009.7
20260502220319 58 18 0.0 3.0 0.00 0.00 0.00 47 1009.8
20260502215535 58 62 1.0 3.0 0.00 0.00 0.00 46 1009.7
20260502215035 58 278 0.0 3.0 0.00 0.00 0.00 47 1009.6
20260502214536 58 18 1.0 4.0 0.00 0.00 0.00 45 1009.6
20260502214034 58 63 2.0 4.0 0.00 0.00 0.00 43 1009.6
20260502213534 58 25 1.0 4.0 0.00 0.00 0.00 45 1009.5
20260502213034 58 305 1.0 6.0 0.00 0.00 0.00 47 1009.6
20260502212813 58 48 2.0 6.0 0.00 0.00 0.00 45 1009.6
20260502212314 58 34 1.0 4.0 0.00 0.00 0.00 46 1009.6
20260502211557 58 135 1.0 5.0 0.00 0.00 0.00 46 1009.6
20260502211547 59 303 1.0 3.0 0.00 0.00 0.00 46 1009.6
20260502210535 59 244 1.0 9.0 0.00 0.00 0.00 46 1009.7
20260502210034 59 350 2.0 9.0 0.00 0.00 0.00 44 1009.6
20260502205533 58 340 1.0 4.0 0.00 0.00 0.00 45 1009.6
20260502205034 58 269 1.0 4.0 0.00 0.00 0.00 45 1009.5
20260502204533 58 24 0.0 4.0 0.00 0.00 0.00 44 1009.5
20260502204314 59 303 2.0 4.0 0.00 0.00 0.00 44 1009.5
20260502203533 60 353 1.0 4.0 0.00 0.00 0.00 43 1009.5
20260502203312 60 38 1.0 6.0 0.00 0.00 0.00 44 1009.5
20260502202532 62 257 2.0 6.0 0.00 0.00 0.00 41 1009.4
20260502202034 61 279 2.0 5.0 0.00 0.00 0.00 45 1009.4
20260502201532 60 250 2.0 9.0 0.00 0.00 0.00 42 1009.4
20260502201313 61 69 2.0 9.0 0.00 0.00 0.00 42 1009.4
20260502200532 60 34 1.0 3.0 0.00 0.00 0.00 43 1009.4
20260502200033 60 257 1.0 4.0 0.00 0.00 0.00 43 1009.3
20260502195532 60 203 2.0 4.0 0.00 0.00 0.00 42 1009.4
20260502195030 60 281 2.0 9.0 0.00 0.00 0.00 42 1009.6
20260502194531 59 206 1.0 9.0 0.00 0.00 0.00 45 1009.7
20260502194031 59 298 1.0 5.0 0.00 0.00 0.00 45 1009.8
20260502193531 59 251 0.0 4.0 0.00 0.00 0.00 45 1009.9
20260502193032 59 258 2.0 5.0 0.00 0.00 0.00 44 1009.9
20260502192812 60 303 2.0 5.0 0.00 0.00 0.00 42 1009.9
20260502192031 61 286 2.0 4.0 0.00 0.00 0.00 44 1009.9
20260502191835 60 102 1.0 11.0 0.00 0.00 0.00 43 1010.2
20260502191547 61 0 1.0 5.0 0.00 0.00 0.00 42 1010.0
20260502190531 62 266 3.0 11.0 0.00 0.00 0.00 42 1010.4
20260502190031 61 293 2.0 9.0 0.00 0.00 0.00 45 1010.4
20260502185532 60 34 2.0 9.0 0.00 0.00 0.00 46 1010.5
20260502185031 61 336 1.0 4.0 0.00 0.00 0.00 41 1010.5
20260502184531 62 90 1.0 4.0 0.00 0.00 0.00 41 1010.5
20260502184031 61 164 2.0 4.0 0.00 0.00 0.00 43 1010.7
20260502183530 61 102 1.0 4.0 0.00 0.00 0.00 42 1010.6
20260502183310 62 313 1.0 4.0 0.00 0.00 0.00 45 1010.8
20260502182531 62 310 2.0 4.0 0.00 0.00 0.00 42 1010.8
20260502182030 61 37 1.0 4.0 0.00 0.00 0.00 42 1010.8
20260502181810 60 209 1.0 4.0 0.00 0.00 0.00 44 1010.9
20260502181029 61 265 1.0 6.0 0.00 0.00 0.00 41 1011.0
20260502180529 60 28 2.0 6.0 0.00 0.00 0.00 40 1011.0
20260502170308 59 56 2.0 7.0 0.00 0.00 0.00 48 1011.6
20260502164028 60 337 2.0 5.0 0.00 0.00 0.00 48 1011.9
20260502163528 59 82 2.0 5.0 0.00 0.00 0.00 48 1011.9
20260502163306 57 42 2.0 4.0 0.00 0.00 0.00 51 1011.9
20260502162527 57 45 2.0 3.0 0.00 0.00 0.00 55 1012.0
20260502162028 57 93 2.0 3.0 0.00 0.00 0.00 52 1012.0
20260502161807 56 59 1.0 3.0 0.00 0.00 0.00 56 1012.0
20260502161027 55 172 1.0 5.0 0.00 0.00 0.00 53 1012.0
20260502160527 56 302 0.0 5.0 0.00 0.00 0.00 55 1012.0
20260502160309 56 45 1.0 3.0 0.00 0.00 0.00 54 1012.1
20260502152027 55 28 2.0 7.0 0.00 0.00 0.00 55 1012.4
20260502151525 55 54 2.0 6.0 0.00 0.00 0.00 56 1012.4
20260502151026 55 72 1.0 5.0 0.00 0.00 0.00 59 1012.4
20260502150526 55 38 2.0 5.0 0.00 0.00 0.00 57 1012.5
20260502130502 50 68 1.0 5.0 0.00 0.00 0.00 65 1012.1
20260502123503 49 286 2.0 6.0 0.00 0.00 0.00 66 1012.3
20260502123002 49 175 1.0 6.0 0.00 0.00 0.00 67 1012.3
20260502122503 49 65 2.0 10.0 0.00 0.00 0.00 66 1012.3
20260502122004 49 8 2.0 10.0 0.00 0.00 0.00 67 1012.3
20260502121503 49 348 2.0 6.0 0.00 0.00 0.00 66 1012.3
20260502121002 49 37 2.0 6.0 0.00 0.00 0.00 66 1012.4
20260502120502 49 61 2.0 6.0 0.00 0.00 0.00 67 1012.1
20260502115502 48 61 1.0 7.0 0.00 0.00 0.00 69 1012.3
20260502115003 47 281 3.0 7.0 0.00 0.00 0.00 68 1012.3
20260502114503 47 237 2.0 7.0 0.00 0.00 0.00 69 1012.1
20260502114244 47 39 1.0 4.0 0.00 0.00 0.00 69 1012.0
20260502113506 47 244 2.0 4.0 0.00 0.00 0.00 69 1012.3
20260502112958 47 268 2.0 3.0 0.00 0.00 0.00 70 1012.4
20260502112458 47 295 0.0 3.0 0.00 0.00 0.00 70 1012.4
20260502112237 47 300 0.0 3.0 0.00 0.00 0.00 69 1012.5
20260502111458 47 302 0.0 5.0 0.00 0.00 0.00 69 1012.4
20260502110954 47 172 2.0 6.0 0.00 0.00 0.00 68 1012.3
20260502110454 47 293 1.0 9.0 0.00 0.00 0.00 68 1012.1
20260502105953 47 262 2.0 9.0 0.00 0.00 0.00 68 1012.0
20260502105452 47 27 2.0 9.0 0.00 0.00 0.00 69 1012.0
20260502104952 47 11 3.0 9.0 0.00 0.00 0.00 69 1011.6
20260502104452 47 283 1.0 4.0 0.00 0.00 0.00 70 1011.7
20260502103954 48 61 1.0 7.0 0.00 0.00 0.00 70 1011.7
20260502103450 48 252 2.0 7.0 0.00 0.00 0.00 69 1011.7
20260502102950 48 286 1.0 6.0 0.00 0.00 0.00 69 1011.5
20260502102448 48 24 2.0 6.0 0.00 0.00 0.00 69 1011.6
20260502101945 48 282 1.0 4.0 0.00 0.00 0.00 68 1011.5
20260502101445 48 320 2.0 4.0 0.00 0.00 0.00 69 1011.5
20260502100944 48 18 1.0 5.0 0.00 0.00 0.00 69 1011.4
20260502100446 49 257 1.0 5.0 0.00 0.00 0.00 68 1011.4
20260502091430 50 299 1.0 5.0 0.00 0.00 0.00 67 1010.7
20260502090931 50 45 2.0 5.0 0.00 0.00 0.00 67 1010.6
20260502090430 50 259 1.0 7.0 0.00 0.00 0.00 66 1010.7
20260502070920 53 285 1.0 4.0 0.00 0.00 0.00 70 1010.4
20260502070416 53 164 0.0 3.0 0.00 0.00 0.00 70 1010.5
20260502065917 53 331 1.0 3.0 0.00 0.00 0.00 70 1010.4
20260502065417 53 224 0.0 3.0 0.00 0.00 0.00 70 1010.4
20260502064918 53 213 1.0 3.0 0.00 0.00 0.00 70 1010.3
20260502064656 53 305 0.0 1.0 0.00 0.00 0.00 70 1010.1
20260502063917 53 305 0.0 3.0 0.00 0.00 0.00 69 1010.2
20260502063415 53 305 0.0 5.0 0.00 0.00 0.00 69 1010.2
20260502062914 53 63 2.0 5.0 0.00 0.00 0.00 68 1010.3
20260502062415 54 261 1.0 3.0 0.00 0.00 0.00 68 1010.3
20260502061918 54 252 1.0 4.0 0.00 0.00 0.00 67 1010.3
20260502061416 54 58 2.0 5.0 0.00 0.00 0.00 67 1010.4
20260502060917 54 258 1.0 5.0 0.00 0.00 0.00 67 1010.6
20260502060414 55 217 1.0 4.0 0.00 0.00 0.00 66 1010.6
20260502055913 55 257 1.0 4.0 0.00 0.00 0.00 66 1010.7
20260502055413 55 93 1.0 5.0 0.00 0.00 0.00 67 1010.8
20260502054914 55 37 1.0 6.0 0.00 0.00 0.00 66 1010.8
20260502054413 55 286 3.0 6.0 0.00 0.00 0.00 66 1010.7
20260502053914 55 286 1.0 4.0 0.00 0.00 0.00 67 1010.8
20260502053414 55 48 2.0 4.0 0.00 0.00 0.00 68 1010.7
20260502052913 55 345 1.0 2.0 0.00 0.00 0.00 69 1010.7
20260502052413 55 248 0.0 5.0 0.00 0.00 0.00 70 1010.7
20260502052154 55 248 1.0 5.0 0.00 0.00 0.00 70 1010.9
20260502051413 55 278 0.0 2.0 0.00 0.00 0.00 72 1010.9
20260502050912 55 283 0.0 1.0 0.00 0.00 0.00 72 1010.8
20260502050412 55 283 0.0 1.0 0.00 0.00 0.00 73 1010.9
20260502045913 55 283 0.0 1.0 0.00 0.00 0.00 73 1010.8
20260502045413 55 283 0.0 1.0 0.00 0.00 0.00 73 1010.7
20260502044914 55 283 0.0 0.0 0.00 0.00 0.00 73 1010.9
20260502044412 55 283 0.0 0.0 0.00 0.00 0.00 73 1011.0
20260502043912 55 283 0.0 0.0 0.00 0.00 0.00 72 1010.9
20260502043412 56 283 0.0 0.0 0.00 0.00 0.00 72 1010.9
20260502042911 56 283 0.0 1.0 0.00 0.00 0.00 73 1010.8
20260502042647 56 283 0.0 2.0 0.00 0.00 0.00 71 1010.8
20260502041908 56 283 0.0 3.0 0.00 0.00 0.00 71 1010.8
20260502041642 56 285 0.0 3.0 0.00 0.00 0.00 72 1010.7
20260502040903 56 45 0.0 3.0 0.00 0.00 0.00 72 1010.6
20260502040403 56 44 0.0 3.0 0.00 0.00 0.00 72 1010.6
20260502035905 56 117 0.0 3.0 0.00 0.00 0.00 72 1010.5
20260502035404 56 329 0.0 3.0 0.00 0.00 0.00 72 1010.4
20260502034905 56 293 0.0 3.0 0.00 0.00 0.00 73 1010.4
20260502034403 56 293 1.0 3.0 0.00 0.00 0.00 73 1010.2
20260502033902 56 49 1.0 2.0 0.00 0.00 0.00 71 1010.1
20260502033349 57 48 0.0 1.0 0.00 0.00 0.00 71 1010.2
20260502032852 57 49 0.0 1.0 0.00 0.00 0.00 68 1010.2
20260502032333 57 49 0.0 1.0 0.00 0.00 0.00 67 1010.1
20260502031826 57 49 0.0 1.0 0.00 0.00 0.00 68 1010.1
20260502031603 57 49 0.0 1.0 0.00 0.00 0.00 68 1009.8
20260502030826 57 49 0.0 1.0 0.00 0.00 0.00 66 1009.7
20260502030323 58 49 0.0 1.0 0.00 0.00 0.00 65 1009.6
20260502025824 57 49 0.0 1.0 0.00 0.00 0.00 65 1009.2
20260502025322 57 49 0.0 2.0 0.00 0.00 0.00 64 1009.1
20260502024821 57 49 0.0 2.0 0.00 0.00 0.00 63 1009.0
20260502024317 57 52 0.0 2.0 0.00 0.00 0.00 63 1008.9
20260502024057 57 52 0.0 2.0 0.00 0.00 0.00 64 1008.9
20260502023318 58 49 0.0 2.0 0.00 0.00 0.00 62 1008.9
20260502022817 58 49 0.0 2.0 0.00 0.00 0.00 62 1009.1
20260502022316 58 49 0.0 2.0 0.00 0.00 0.00 64 1009.1
20260502021815 58 52 0.0 1.0 0.00 0.00 0.00 64 1009.1
20260502021311 58 51 0.0 3.0 0.00 0.00 0.00 62 1009.1
20260502021050 58 51 0.0 3.0 0.00 0.00 0.00 59 1009.0
20260502020310 59 89 0.0 3.0 0.00 0.00 0.00 60 1009.3
20260502015808 59 125 0.0 1.0 0.00 0.00 0.00 59 1009.4
20260502015308 59 125 0.0 2.0 0.00 0.00 0.00 57 1009.2
20260502014808 60 125 0.0 2.0 0.00 0.00 0.00 57 1009.2